Starlink 11172

operational
NORAD ID: 60193 Int'l Des: 2024-124 Owner: SPXS Country: US Constellation: starlink
LEOCIRCULAR

关于 Starlink 11172

正在加载描述...

实时位置

正在加载3D地球...

即将过境

高度历史

Altitude vs Time

uPlot chart will show altitude changes over time

两行轨道根数

1 60193U 24124L 26037.17822126 -.00007408 00000-0 -56425-4 0 9996
2 60193 53.1571 316.6827 0001124 94.1475 265.9671 15.69676034 91580
Epoch: Feb 6, 2026 • Age: 6 hours

当前状态

高度 375.0 km
速度 7.68 km/s
星下点 -43.34°S, 17.86°W
发射日期 Jul 3, 2024
运行时间 1.5 years
类型 internet

技术详情

分类 Payload
质量 960.00 kg
干质量 910.00 kg
总质量 960.00 kg
长度 0.30 m
直径 4.10 m
跨度 29.00 m
形状 Box + pan
制造商 SPXS
平台类型 Starlink V2MD
阶段状态 In Orbit
所有者/国家 SPXS/US

大型星座

Loading constellations...